Time,TemperatureF,DewpointF,PressureIn,WindDirection,WindDirectionDegrees,WindSpeedMPH,WindSpeedGustMPH,Humidity,HourlyPrecipIn,Conditions,Clouds,dailyrainin,SoftwareType,DateUTC
2013-04-11 00:02:00,33.0,23.0,29.90,East,95,0.0,2.0,65,0.00,,,0.11,,2013-04-11 05:02:00,
2013-04-11 00:13:00,33.0,23.0,29.90,East,95,0.0,2.0,65,0.00,,,0.11,,2013-04-11 05:13:00,
2013-04-11 00:22:00,33.0,23.0,29.90,East,95,0.0,2.0,65,0.00,,,0.11,,2013-04-11 05:22:00,
2013-04-11 00:32:00,31.0,21.0,29.92,East,95,0.0,2.0,67,0.00,,,0.11,,2013-04-11 05:32:00,
2013-04-11 00:42:00,31.0,21.0,29.92,East,95,0.0,2.0,67,0.00,,,0.11,,2013-04-11 05:42:00,
2013-04-11 00:52:00,31.0,21.0,29.92,East,95,0.0,2.0,67,0.00,,,0.11,,2013-04-11 05:52:00,
2013-04-11 01:02:00,32.0,22.0,29.91,East,95,1.0,3.0,67,0.00,,,0.11,,2013-04-11 06:02:00,
2013-04-11 01:12:00,32.0,22.0,29.91,East,95,1.0,3.0,67,0.00,,,0.11,,2013-04-11 06:12:00,
2013-04-11 01:22:00,32.0,22.0,29.91,East,95,1.0,3.0,67,0.00,,,0.11,,2013-04-11 06:22:00,
2013-04-11 01:32:00,31.0,22.0,29.91,East,95,1.0,3.0,70,0.00,,,0.11,,2013-04-11 06:32:00,
2013-04-11 01:42:00,31.0,22.0,29.91,East,95,1.0,3.0,70,0.00,,,0.11,,2013-04-11 06:42:00,
2013-04-11 01:52:00,31.0,22.0,29.91,East,95,1.0,3.0,70,0.00,,,0.11,,2013-04-11 06:52:00,
2013-04-11 02:02:00,29.0,21.0,29.92,East,95,0.0,1.0,73,0.00,,,0.11,,2013-04-11 07:02:00,
2013-04-11 02:12:00,29.0,21.0,29.92,East,95,0.0,1.0,73,0.00,,,0.11,,2013-04-11 07:12:00,
2013-04-11 02:22:00,29.0,21.0,29.92,East,95,0.0,1.0,73,0.00,,,0.11,,2013-04-11 07:22:00,
2013-04-11 02:32:00,28.0,21.0,29.92,East,95,1.0,2.0,75,0.00,,,0.11,,2013-04-11 07:32:00,
2013-04-11 02:43:00,28.0,21.0,29.92,East,95,1.0,2.0,75,0.00,,,0.11,,2013-04-11 07:43:00,
2013-04-11 02:52:00,28.0,21.0,29.92,East,95,1.0,2.0,75,0.00,,,0.11,,2013-04-11 07:52:00,
2013-04-11 03:03:00,28.0,21.0,29.90,East,95,0.0,2.0,75,0.00,,,0.11,,2013-04-11 08:03:00,
2013-04-11 03:12:00,28.0,21.0,29.90,East,95,0.0,2.0,75,0.00,,,0.11,,2013-04-11 08:12:00,
2013-04-11 03:22:00,28.0,21.0,29.90,East,95,0.0,2.0,75,0.00,,,0.11,,2013-04-11 08:22:00,
2013-04-11 03:32:00,27.0,21.0,29.89,East,95,0.0,1.0,77,0.00,,,0.11,,2013-04-11 08:32:00,
2013-04-11 03:43:00,27.0,21.0,29.89,East,95,0.0,1.0,77,0.00,,,0.11,,2013-04-11 08:43:00,
2013-04-11 03:52:00,27.0,21.0,29.89,East,95,0.0,1.0,77,0.00,,,0.11,,2013-04-11 08:52:00,
2013-04-11 04:02:00,30.0,22.0,29.87,SE,131,1.0,6.0,71,0.00,,,0.11,,2013-04-11 09:02:00,
2013-04-11 04:12:00,30.0,22.0,29.87,SE,131,1.0,6.0,71,0.00,,,0.11,,2013-04-11 09:12:00,
2013-04-11 04:22:00,30.0,22.0,29.87,SE,131,1.0,6.0,71,0.00,,,0.11,,2013-04-11 09:22:00,
2013-04-11 04:33:00,31.0,21.0,29.85,SE,131,0.0,2.0,67,0.00,,,0.11,,2013-04-11 09:33:00,
2013-04-11 04:43:00,31.0,21.0,29.85,SE,131,0.0,2.0,67,0.00,,,0.11,,2013-04-11 09:43:00,
2013-04-11 04:53:00,31.0,21.0,29.85,SE,131,0.0,2.0,67,0.00,,,0.11,,2013-04-11 09:53:00,
2013-04-11 05:02:00,29.0,21.0,29.86,SE,131,0.0,1.0,71,0.00,,,0.11,,2013-04-11 10:02:00,
2013-04-11 05:12:00,29.0,21.0,29.86,SE,131,0.0,1.0,71,0.00,,,0.11,,2013-04-11 10:12:00,
2013-04-11 05:23:00,29.0,21.0,29.86,SE,131,0.0,1.0,71,0.00,,,0.11,,2013-04-11 10:23:00,
2013-04-11 05:32:00,27.0,19.0,29.87,SE,131,0.0,1.0,72,0.00,,,0.11,,2013-04-11 10:32:00,
2013-04-11 05:42:00,27.0,19.0,29.87,SE,131,0.0,1.0,72,0.00,,,0.11,,2013-04-11 10:42:00,
2013-04-11 05:52:00,27.0,19.0,29.87,SE,131,0.0,1.0,72,0.00,,,0.11,,2013-04-11 10:52:00,
2013-04-11 06:02:00,27.0,19.0,29.87,SE,131,0.0,1.0,72,0.00,,,0.11,,2013-04-11 11:02:00,
2013-04-11 06:12:00,27.0,20.0,29.86,SE,131,0.0,3.0,73,0.00,,,0.11,,2013-04-11 11:12:00,
2013-04-11 06:23:00,27.0,20.0,29.86,SE,131,0.0,3.0,73,0.00,,,0.11,,2013-04-11 11:23:00,
2013-04-11 06:32:00,28.0,20.0,29.86,SE,133,0.0,3.0,71,0.00,,,0.08,,2013-04-11 11:32:00,
2013-04-11 06:43:00,28.0,20.0,29.86,SE,133,0.0,3.0,71,0.00,,,0.08,,2013-04-11 11:43:00,
2013-04-11 06:52:00,28.0,20.0,29.86,SE,133,0.0,3.0,71,0.00,,,0.08,,2013-04-11 11:52:00,
2013-04-11 07:02:00,37.0,20.0,29.81,WSW,258,3.0,8.0,49,0.00,,,0.07,,2013-04-11 12:02:00,
2013-04-11 07:12:00,37.0,20.0,29.81,WSW,258,3.0,8.0,49,0.00,,,0.07,,2013-04-11 12:12:00,
2013-04-11 07:22:00,37.0,20.0,29.81,WSW,258,3.0,8.0,49,0.00,,,0.07,,2013-04-11 12:22:00,
2013-04-11 07:32:00,42.0,20.0,29.78,SW,226,5.0,10.0,41,0.00,,,0.04,,2013-04-11 12:32:00,
2013-04-11 07:43:00,42.0,20.0,29.78,SW,226,5.0,10.0,41,0.00,,,0.04,,2013-04-11 12:43:00,
2013-04-11 07:52:00,42.0,20.0,29.78,SW,226,5.0,10.0,41,0.00,,,0.04,,2013-04-11 12:52:00,
2013-04-11 08:02:00,41.0,20.0,29.85,WSW,246,4.0,8.0,42,0.00,,,0.03,,2013-04-11 13:02:00,
2013-04-11 08:12:00,41.0,20.0,29.85,WSW,246,4.0,8.0,42,0.00,,,0.03,,2013-04-11 13:12:00,
2013-04-11 08:23:00,41.0,20.0,29.85,WSW,246,4.0,8.0,42,0.00,,,0.03,,2013-04-11 13:23:00,
2013-04-11 08:32:00,42.0,21.0,29.83,WSW,241,7.0,12.0,42,0.00,,,0.03,,2013-04-11 13:32:00,
2013-04-11 08:43:00,42.0,21.0,29.83,WSW,241,7.0,12.0,42,0.00,,,0.03,,2013-04-11 13:43:00,
2013-04-11 08:54:00,42.0,21.0,29.83,WSW,241,7.0,12.0,42,0.00,,,0.03,,2013-04-11 13:54:00,
2013-04-11 09:02:00,45.0,22.0,29.84,West,268,6.0,12.0,39,0.00,,,0.01,,2013-04-11 14:02:00,
2013-04-11 09:12:00,45.0,22.0,29.84,West,268,6.0,12.0,39,0.00,,,0.01,,2013-04-11 14:12:00,
2013-04-11 09:22:00,45.0,22.0,29.84,West,268,6.0,12.0,39,0.00,,,0.01,,2013-04-11 14:22:00,
2013-04-11 09:32:00,47.0,22.0,29.83,WSW,250,5.0,16.0,37,0.00,,,0.00,,2013-04-11 14:32:00,
2013-04-11 09:43:00,47.0,22.0,29.83,WSW,250,5.0,16.0,37,0.00,,,0.00,,2013-04-11 14:43:00,
2013-04-11 09:53:00,47.0,22.0,29.83,WSW,250,5.0,16.0,37,0.00,,,0.00,,2013-04-11 14:53:00,
2013-04-11 10:02:00,48.0,22.0,29.85,SW,234,7.0,14.0,36,0.00,,,0.00,,2013-04-11 15:02:00,
2013-04-11 10:12:00,48.0,22.0,29.85,SW,234,7.0,14.0,36,0.00,,,0.00,,2013-04-11 15:12:00,
2013-04-11 10:22:00,48.0,22.0,29.85,SW,234,7.0,14.0,36,0.00,,,0.00,,2013-04-11 15:22:00,
2013-04-11 10:32:00,48.0,22.0,29.85,West,261,11.0,20.0,35,0.00,,,0.00,,2013-04-11 15:32:00,
2013-04-11 10:43:00,48.0,22.0,29.85,West,261,11.0,20.0,35,0.00,,,0.00,,2013-04-11 15:43:00,
2013-04-11 10:53:00,48.0,22.0,29.85,West,261,11.0,20.0,35,0.00,,,0.00,,2013-04-11 15:53:00,
2013-04-11 11:02:00,50.0,21.0,29.87,WSW,243,7.0,22.0,32,0.00,,,0.00,,2013-04-11 16:02:00,
2013-04-11 11:13:00,50.0,21.0,29.87,WSW,243,7.0,22.0,32,0.00,,,0.00,,2013-04-11 16:13:00,
2013-04-11 11:23:00,50.0,21.0,29.87,WSW,243,7.0,22.0,32,0.00,,,0.00,,2013-04-11 16:23:00,
2013-04-11 11:32:00,51.0,20.0,29.87,WSW,257,8.0,21.0,29,0.00,,,0.00,,2013-04-11 16:32:00,
2013-04-11 11:42:00,51.0,20.0,29.87,WSW,257,8.0,21.0,29,0.00,,,0.00,,2013-04-11 16:42:00,
2013-04-11 11:53:00,51.0,20.0,29.87,WSW,257,8.0,21.0,29,0.00,,,0.00,,2013-04-11 16:53:00,
2013-04-11 12:02:00,53.0,20.0,29.86,SSW,209,11.0,21.0,27,0.00,,,0.00,,2013-04-11 17:02:00,
2013-04-11 12:13:00,53.0,20.0,29.86,SSW,209,11.0,21.0,27,0.00,,,0.00,,2013-04-11 17:13:00,
2013-04-11 12:23:00,53.0,20.0,29.86,SSW,209,11.0,21.0,27,0.00,,,0.00,,2013-04-11 17:23:00,
2013-04-11 12:32:00,52.0,19.0,29.88,WNW,295,9.0,24.0,27,0.00,,,0.00,,2013-04-11 17:32:00,
2013-04-11 12:43:00,52.0,19.0,29.88,WNW,295,9.0,24.0,27,0.00,,,0.00,,2013-04-11 17:43:00,
2013-04-11 12:53:00,52.0,19.0,29.88,WNW,295,9.0,24.0,27,0.00,,,0.00,,2013-04-11 17:53:00,
2013-04-11 13:03:00,54.0,17.0,29.86,SSW,209,9.0,20.0,23,0.00,,,0.00,,2013-04-11 18:03:00,
2013-04-11 13:13:00,54.0,17.0,29.86,SSW,209,9.0,20.0,23,0.00,,,0.00,,2013-04-11 18:13:00,
2013-04-11 13:23:00,54.0,17.0,29.86,SSW,209,9.0,20.0,23,0.00,,,0.00,,2013-04-11 18:23:00,
2013-04-11 13:33:00,55.0,17.0,29.85,NW,306,6.0,21.0,22,0.00,,,0.00,,2013-04-11 18:33:00,
2013-04-11 13:43:00,55.0,17.0,29.85,NW,306,6.0,21.0,22,0.00,,,0.00,,2013-04-11 18:43:00,
2013-04-11 13:53:00,55.0,17.0,29.85,NW,306,6.0,21.0,22,0.00,,,0.00,,2013-04-11 18:53:00,
2013-04-11 14:03:00,55.0,17.0,29.86,NW,305,7.0,22.0,22,0.00,,,0.00,,2013-04-11 19:03:00,
2013-04-11 14:14:00,55.0,17.0,29.86,NW,305,7.0,22.0,22,0.00,,,0.00,,2013-04-11 19:14:00,
2013-04-11 14:22:00,55.0,17.0,29.86,NW,305,7.0,22.0,22,0.00,,,0.00,,2013-04-11 19:22:00,
2013-04-11 14:32:00,56.0,17.0,29.84,SW,229,9.0,26.0,21,0.00,,,0.00,,2013-04-11 19:32:00,
2013-04-11 14:43:00,56.0,17.0,29.84,SW,229,9.0,26.0,21,0.00,,,0.00,,2013-04-11 19:43:00,
2013-04-11 14:53:00,56.0,17.0,29.84,SW,229,9.0,26.0,21,0.00,,,0.00,,2013-04-11 19:53:00,
2013-04-11 15:02:00,57.0,15.0,29.86,WNW,289,11.0,22.0,19,0.00,,,0.00,,2013-04-11 20:02:00,
2013-04-11 15:13:00,57.0,15.0,29.86,WNW,289,11.0,22.0,19,0.00,,,0.00,,2013-04-11 20:13:00,
2013-04-11 15:22:00,57.0,15.0,29.86,WNW,289,11.0,22.0,19,0.00,,,0.00,,2013-04-11 20:22:00,
2013-04-11 15:33:00,57.0,15.0,29.86,NW,306,9.0,20.0,19,0.00,,,0.00,,2013-04-11 20:33:00,
2013-04-11 15:43:00,57.0,15.0,29.86,NW,306,9.0,20.0,19,0.00,,,0.00,,2013-04-11 20:43:00,
2013-04-11 15:52:00,57.0,15.0,29.86,NW,306,9.0,20.0,19,0.00,,,0.00,,2013-04-11 20:52:00,
2013-04-11 16:02:00,59.0,14.0,29.81,West,267,12.0,21.0,17,0.00,,,0.00,,2013-04-11 21:02:00,
2013-04-11 16:12:00,59.0,14.0,29.81,West,267,12.0,21.0,17,0.00,,,0.00,,2013-04-11 21:12:00,
2013-04-11 16:22:00,59.0,14.0,29.81,West,267,12.0,21.0,17,0.00,,,0.00,,2013-04-11 21:22:00,
2013-04-11 16:33:00,60.0,16.0,29.79,WSW,251,3.0,24.0,18,0.00,,,0.00,,2013-04-11 21:33:00,
2013-04-11 16:43:00,60.0,16.0,29.79,WSW,251,3.0,24.0,18,0.00,,,0.00,,2013-04-11 21:43:00,
2013-04-11 16:54:00,60.0,16.0,29.79,WSW,251,3.0,24.0,18,0.00,,,0.00,,2013-04-11 21:54:00,
2013-04-11 17:03:00,60.0,15.0,29.81,WSW,237,7.0,20.0,17,0.00,,,0.00,,2013-04-11 22:03:00,
2013-04-11 17:13:00,60.0,15.0,29.81,WSW,237,7.0,20.0,17,0.00,,,0.00,,2013-04-11 22:13:00,
2013-04-11 17:23:00,60.0,15.0,29.81,WSW,237,7.0,20.0,17,0.00,,,0.00,,2013-04-11 22:23:00,
2013-04-11 17:33:00,61.0,14.0,29.79,WNW,284,5.0,20.0,16,0.00,,,0.00,,2013-04-11 22:33:00,
2013-04-11 17:44:00,61.0,14.0,29.79,WNW,284,5.0,20.0,16,0.00,,,0.00,,2013-04-11 22:44:00,
2013-04-11 17:53:00,61.0,14.0,29.79,WNW,284,5.0,20.0,16,0.00,,,0.00,,2013-04-11 22:53:00,
2013-04-11 18:03:00,61.0,13.0,29.73,NNW,345,6.0,18.0,15,0.00,,,0.00,,2013-04-11 23:03:00,
2013-04-11 18:13:00,61.0,13.0,29.73,NNW,345,6.0,18.0,15,0.00,,,0.00,,2013-04-11 23:13:00,
2013-04-11 18:23:00,61.0,13.0,29.73,NNW,345,6.0,18.0,15,0.00,,,0.00,,2013-04-11 23:23:00,
2013-04-11 18:32:00,61.0,13.0,29.74,NNE,30,3.0,14.0,15,0.00,,,0.00,,2013-04-11 23:32:00,
2013-04-11 18:43:00,61.0,13.0,29.74,NNE,30,3.0,14.0,15,0.00,,,0.00,,2013-04-11 23:43:00,
2013-04-11 18:53:00,61.0,13.0,29.74,NNE,30,3.0,14.0,15,0.00,,,0.00,,2013-04-11 23:53:00,
2013-04-11 19:02:00,60.0,14.0,29.71,WSW,255,7.0,14.0,16,0.00,,,0.00,,2013-04-12 00:02:00,
2013-04-11 19:12:00,60.0,14.0,29.71,WSW,255,7.0,14.0,16,0.00,,,0.00,,2013-04-12 00:12:00,
2013-04-11 19:22:00,60.0,14.0,29.71,WSW,255,7.0,14.0,16,0.00,,,0.00,,2013-04-12 00:22:00,
2013-04-11 19:32:00,60.0,14.0,29.70,WSW,248,2.0,17.0,16,0.00,,,0.00,,2013-04-12 00:32:00,
2013-04-11 19:43:00,60.0,14.0,29.70,WSW,248,2.0,17.0,16,0.00,,,0.00,,2013-04-12 00:43:00,
2013-04-11 19:53:00,60.0,14.0,29.70,WSW,248,2.0,17.0,16,0.00,,,0.00,,2013-04-12 00:53:00,
2013-04-11 20:02:00,59.0,14.0,29.71,West,278,1.0,12.0,17,0.00,,,0.00,,2013-04-12 01:02:00,
2013-04-11 20:12:00,59.0,14.0,29.71,West,278,1.0,12.0,17,0.00,,,0.00,,2013-04-12 01:12:00,
2013-04-11 20:22:00,59.0,14.0,29.71,West,278,1.0,12.0,17,0.00,,,0.00,,2013-04-12 01:22:00,
2013-04-11 20:32:00,56.0,13.0,29.74,SW,227,1.0,12.0,18,0.00,,,0.00,,2013-04-12 01:32:00,
2013-04-11 20:42:00,56.0,13.0,29.74,SW,227,1.0,12.0,18,0.00,,,0.00,,2013-04-12 01:42:00,
2013-04-11 20:52:00,56.0,13.0,29.74,SW,227,1.0,12.0,18,0.00,,,0.00,,2013-04-12 01:52:00,
2013-04-11 21:03:00,55.0,15.0,29.72,SW,234,0.0,8.0,20,0.00,,,0.00,,2013-04-12 02:03:00,
2013-04-11 21:12:00,55.0,15.0,29.72,SW,234,0.0,8.0,20,0.00,,,0.00,,2013-04-12 02:12:00,
2013-04-11 21:22:00,55.0,15.0,29.72,SW,234,0.0,8.0,20,0.00,,,0.00,,2013-04-12 02:22:00,
2013-04-11 21:32:00,49.0,14.0,29.76,SW,223,0.0,6.0,24,0.00,,,0.00,,2013-04-12 02:32:00,
2013-04-11 21:42:00,49.0,14.0,29.76,SW,223,0.0,6.0,24,0.00,,,0.00,,2013-04-12 02:42:00,
2013-04-11 21:52:00,49.0,14.0,29.76,SW,223,0.0,6.0,24,0.00,,,0.00,,2013-04-12 02:52:00,
2013-04-11 22:02:00,44.0,14.0,29.79,SW,223,0.0,1.0,29,0.00,,,0.00,,2013-04-12 03:02:00,
2013-04-11 22:12:00,44.0,14.0,29.79,SW,223,0.0,1.0,29,0.00,,,0.00,,2013-04-12 03:12:00,
2013-04-11 22:22:00,44.0,14.0,29.79,SW,223,0.0,1.0,29,0.00,,,0.00,,2013-04-12 03:22:00,
2013-04-11 22:33:00,39.0,14.0,29.85,SW,223,0.0,1.0,36,0.00,,,0.00,,2013-04-12 03:33:00,
2013-04-11 22:43:00,39.0,14.0,29.85,SW,223,0.0,1.0,36,0.00,,,0.00,,2013-04-12 03:43:00,
2013-04-11 22:53:00,39.0,14.0,29.85,SW,223,0.0,1.0,36,0.00,,,0.00,,2013-04-12 03:53:00,
2013-04-11 23:03:00,36.0,15.0,29.87,SW,223,0.0,2.0,41,0.00,,,0.00,,2013-04-12 04:03:00,
2013-04-11 23:13:00,36.0,15.0,29.87,SW,223,0.0,2.0,41,0.00,,,0.00,,2013-04-12 04:13:00,
2013-04-11 23:23:00,36.0,15.0,29.87,SW,223,0.0,2.0,41,0.00,,,0.00,,2013-04-12 04:23:00,
2013-04-11 23:33:00,35.0,15.0,29.88,SW,223,0.0,1.0,44,0.00,,,0.00,,2013-04-12 04:33:00,
2013-04-11 23:43:00,35.0,15.0,29.88,SW,223,0.0,1.0,44,0.00,,,0.00,,2013-04-12 04:43:00,
2013-04-11 23:53:00,35.0,15.0,29.88,SW,223,0.0,1.0,44,0.00,,,0.00,,2013-04-12 04:53:00,